SWA459 KLAS-KSAN

Flight info

Callsign SWA459
Flight time 0h 42m
Altitude 30000
Route RADYR2 LVELL LUCKI1
Aircraft B738/M-SDE2E3FGHIRWXY/LB1

Departure

Time 2026-05-07 06:04
Airport Harry Reid International Airport (KLAS)

Arrival

Time 2026-05-07 06:46
Airport San Diego International Airport (KSAN)
Time Latitude Longitude Altitude Speed Heading
2026-05-07 05:44 36.08010 -115.14566 2115 ft 0 kts 265°
2026-05-07 05:55 36.08011 -115.14549 2115 ft 3 kts 248°
2026-05-07 05:56 36.08020 -115.14542 2117 ft 0 kts 134°
2026-05-07 05:58 36.08019 -115.14541 2117 ft 2 kts 135°
2026-05-07 05:58 36.07990 -115.14487 2115 ft 13 kts 141°
2026-05-07 05:59 36.07884 -115.14485 2117 ft 18 kts 176°
2026-05-07 05:59 36.07763 -115.14411 2120 ft 21 kts 116°
2026-05-07 05:59 36.07753 -115.14220 2119 ft 24 kts 90°
2026-05-07 05:59 36.07753 -115.14004 2121 ft 25 kts 90°
2026-05-07 06:00 36.07754 -115.13795 2124 ft 24 kts 90°
2026-05-07 06:00 36.07753 -115.13573 2124 ft 26 kts 90°
2026-05-07 06:00 36.07753 -115.13350 2126 ft 27 kts 90°
2026-05-07 06:00 36.07753 -115.13102 2122 ft 31 kts 90°
2026-05-07 06:01 36.07753 -115.12830 2120 ft 33 kts 90°
2026-05-07 06:01 36.07754 -115.12542 2118 ft 33 kts 90°
2026-05-07 06:01 36.07754 -115.12281 2120 ft 21 kts 90°
2026-05-07 06:01 36.07745 -115.12152 2121 ft 14 kts 120°
2026-05-07 06:02 36.07741 -115.12146 2123 ft 0 kts 126°
2026-05-07 06:02 36.07715 -115.12122 2128 ft 10 kts 156°
2026-05-07 06:02 36.07643 -115.12143 2125 ft 10 kts 242°
2026-05-07 06:02 36.07641 -115.12172 2127 ft 4 kts 269°
2026-05-07 06:03 36.07641 -115.12307 2121 ft 43 kts 270°
2026-05-07 06:03 36.07643 -115.12974 2121 ft 111 kts 270°
2026-05-07 06:03 36.07647 -115.14167 2150 ft 163 kts 270°
2026-05-07 06:03 36.07715 -115.15624 2687 ft 176 kts 273°
2026-05-07 06:04 36.07831 -115.17215 3222 ft 194 kts 275°
2026-05-07 06:04 36.07858 -115.18926 3806 ft 206 kts 266°
2026-05-07 06:04 36.07655 -115.20775 4010 ft 229 kts 260°
2026-05-07 06:04 36.07360 -115.22789 4344 ft 244 kts 260°
2026-05-07 06:05 36.06872 -115.24817 4937 ft 251 kts 239°
2026-05-07 06:05 36.05663 -115.26379 5548 ft 263 kts 212°
2026-05-07 06:05 36.03930 -115.27301 6006 ft 278 kts 200°
2026-05-07 06:05 36.02089 -115.28123 6683 ft 284 kts 200°
2026-05-07 06:06 36.00221 -115.28961 7438 ft 287 kts 200°
2026-05-07 06:06 35.98300 -115.29740 7970 ft 294 kts 194°
2026-05-07 06:06 35.96293 -115.30271 8744 ft 297 kts 191°
2026-05-07 06:06 35.94251 -115.30739 9498 ft 300 kts 190°
2026-05-07 06:07 35.92182 -115.31207 10226 ft 305 kts 190°
2026-05-07 06:07 35.90040 -115.31700 10519 ft 325 kts 191°
2026-05-07 06:07 35.87836 -115.32219 10708 ft 345 kts 191°
2026-05-07 06:07 35.85442 -115.32792 11250 ft 354 kts 191°
2026-05-07 06:08 35.83010 -115.33381 11865 ft 360 kts 190°
2026-05-07 06:08 35.80526 -115.33986 12515 ft 364 kts 191°
2026-05-07 06:08 35.78042 -115.34594 13328 ft 366 kts 191°
2026-05-07 06:08 35.75528 -115.35210 13987 ft 372 kts 191°
2026-05-07 06:09 35.72973 -115.35836 14617 ft 376 kts 190°
2026-05-07 06:09 35.70394 -115.36468 15326 ft 380 kts 190°
2026-05-07 06:09 35.67791 -115.37104 16036 ft 383 kts 190°
2026-05-07 06:09 35.65161 -115.37746 16706 ft 387 kts 190°
2026-05-07 06:10 35.62502 -115.38395 17351 ft 392 kts 189°
2026-05-07 06:10 35.59787 -115.38868 17939 ft 397 kts 179°
2026-05-07 06:10 35.57034 -115.38745 18636 ft 396 kts 174°
2026-05-07 06:10 35.54281 -115.38496 19278 ft 398 kts 173°
2026-05-07 06:11 35.51538 -115.38232 19780 ft 404 kts 173°
2026-05-07 06:11 35.48722 -115.37976 20322 ft 408 kts 173°
2026-05-07 06:11 35.45880 -115.37739 20921 ft 411 kts 174°
2026-05-07 06:11 35.43013 -115.37518 21513 ft 414 kts 174°
2026-05-07 06:12 35.40140 -115.37309 22175 ft 414 kts 174°
2026-05-07 06:12 35.37271 -115.37105 22911 ft 413 kts 174°
2026-05-07 06:12 35.34364 -115.36900 23169 ft 425 kts 174°
2026-05-07 06:12 35.31380 -115.36688 23537 ft 432 kts 174°
2026-05-07 06:13 35.28377 -115.36477 24068 ft 433 kts 174°
2026-05-07 06:13 35.25368 -115.36266 24606 ft 433 kts 174°
2026-05-07 06:13 35.22350 -115.36054 25035 ft 437 kts 174°
2026-05-07 06:13 35.19304 -115.35839 25437 ft 440 kts 174°
2026-05-07 06:14 35.16238 -115.35623 25936 ft 440 kts 174°
2026-05-07 06:14 35.13200 -115.35411 26659 ft 435 kts 174°
2026-05-07 06:14 35.10196 -115.35201 27320 ft 432 kts 174°
2026-05-07 06:14 35.07193 -115.34991 27800 ft 433 kts 174°
2026-05-07 06:15 35.04169 -115.34780 28227 ft 436 kts 174°
2026-05-07 06:15 35.01143 -115.34569 28750 ft 435 kts 174°
2026-05-07 06:15 34.98131 -115.34360 29395 ft 431 kts 174°
2026-05-07 06:15 34.95147 -115.34154 29989 ft 430 kts 174°
2026-05-07 06:16 34.92135 -115.33943 30001 ft 439 kts 173°
2026-05-07 06:16 34.86025 -115.33519 30020 ft 438 kts 173°
2026-05-07 06:17 34.79995 -115.33108 29999 ft 433 kts 175°
2026-05-07 06:17 34.76976 -115.33450 29937 ft 441 kts 195°
2026-05-07 06:17 34.74092 -115.34678 30102 ft 438 kts 199°
2026-05-07 06:18 34.68348 -115.37292 29997 ft 443 kts 199°
2026-05-07 06:18 34.62554 -115.39889 29974 ft 445 kts 198°
2026-05-07 06:19 34.56722 -115.42449 29982 ft 446 kts 198°
2026-05-07 06:19 34.50882 -115.44994 29959 ft 446 kts 198°
2026-05-07 06:20 34.45050 -115.47533 29983 ft 445 kts 198°
2026-05-07 06:20 34.39231 -115.50065 29959 ft 444 kts 198°
2026-05-07 06:21 34.33423 -115.52589 29982 ft 443 kts 198°
2026-05-07 06:21 34.30613 -115.54142 29924 ft 446 kts 210°
2026-05-07 06:21 34.28017 -115.56159 30055 ft 443 kts 213°
2026-05-07 06:22 34.22801 -115.60189 30008 ft 445 kts 211°
2026-05-07 06:22 34.17330 -115.63517 30051 ft 442 kts 199°
2026-05-07 06:22 34.14445 -115.64822 30000 ft 444 kts 198°
2026-05-07 06:23 34.08634 -115.67384 29999 ft 446 kts 198°
2026-05-07 06:23 34.02830 -115.70066 30006 ft 448 kts 199°
2026-05-07 06:24 33.97039 -115.72803 30004 ft 441 kts 199°
2026-05-07 06:24 33.94211 -115.74137 29742 ft 434 kts 199°
2026-05-07 06:24 33.91412 -115.75456 29471 ft 429 kts 199°
2026-05-07 06:25 33.88656 -115.76792 29058 ft 427 kts 200°
2026-05-07 06:25 33.85918 -115.78144 28693 ft 423 kts 200°
2026-05-07 06:25 33.83203 -115.79489 28321 ft 421 kts 200°
2026-05-07 06:25 33.80500 -115.80819 27927 ft 419 kts 200°
2026-05-07 06:26 33.77815 -115.82134 27570 ft 416 kts 200°
2026-05-07 06:26 33.75141 -115.83424 27199 ft 413 kts 199°
2026-05-07 06:26 33.73334 -115.84274 26960 ft 411 kts 199°
2026-05-07 06:26 33.69849 -115.85895 26489 ft 408 kts 199°
2026-05-07 06:27 33.67205 -115.87121 26129 ft 406 kts 199°
2026-05-07 06:27 33.64579 -115.88345 25784 ft 404 kts 199°
2026-05-07 06:27 33.61965 -115.89565 25430 ft 402 kts 199°
2026-05-07 06:27 33.59364 -115.90780 25072 ft 401 kts 199°
2026-05-07 06:28 33.56773 -115.91990 24719 ft 399 kts 199°
2026-05-07 06:28 33.55060 -115.92789 24487 ft 398 kts 199°
2026-05-07 06:28 33.52522 -115.94092 24091 ft 398 kts 210°
2026-05-07 06:28 33.50406 -115.96221 23670 ft 397 kts 232°
2026-05-07 06:29 33.48790 -115.98871 23315 ft 393 kts 237°
2026-05-07 06:29 33.47240 -116.01602 22727 ft 397 kts 238°
2026-05-07 06:29 33.45712 -116.04320 22362 ft 393 kts 237°
2026-05-07 06:29 33.44168 -116.07045 21884 ft 394 kts 237°
2026-05-07 06:30 33.42623 -116.09741 21469 ft 393 kts 237°
2026-05-07 06:30 33.41065 -116.12435 21018 ft 393 kts 237°
2026-05-07 06:30 33.39506 -116.15120 20601 ft 393 kts 236°
2026-05-07 06:30 33.37944 -116.17804 20171 ft 393 kts 236°
2026-05-07 06:31 33.36383 -116.20482 19719 ft 392 kts 236°
2026-05-07 06:31 33.34820 -116.23155 19297 ft 392 kts 234°
2026-05-07 06:31 33.32927 -116.25483 18789 ft 394 kts 213°
2026-05-07 06:31 33.30535 -116.27023 18545 ft 387 kts 205°
2026-05-07 06:32 33.28092 -116.28427 17938 ft 391 kts 204°
2026-05-07 06:32 33.25646 -116.29819 17540 ft 388 kts 204°
2026-05-07 06:32 33.23215 -116.31209 17059 ft 387 kts 204°
2026-05-07 06:32 33.20811 -116.32597 16501 ft 381 kts 204°
2026-05-07 06:33 33.18462 -116.33963 16100 ft 370 kts 205°
2026-05-07 06:33 33.16172 -116.35300 15671 ft 363 kts 204°
2026-05-07 06:33 33.13931 -116.36610 15250 ft 354 kts 204°
2026-05-07 06:33 33.11742 -116.37889 14892 ft 346 kts 204°
2026-05-07 06:34 33.09598 -116.39143 14543 ft 340 kts 204°
2026-05-07 06:34 33.07476 -116.40381 14145 ft 340 kts 204°
2026-05-07 06:34 33.05353 -116.41618 13794 ft 340 kts 204°
2026-05-07 06:34 33.03249 -116.42844 13349 ft 342 kts 204°
2026-05-07 06:35 33.01113 -116.44092 12953 ft 342 kts 205°
2026-05-07 06:35 32.99114 -116.45634 12526 ft 344 kts 218°
2026-05-07 06:35 32.97326 -116.47489 12274 ft 340 kts 220°
2026-05-07 06:35 32.95510 -116.49393 11773 ft 345 kts 220°
2026-05-07 06:36 32.93710 -116.51271 11440 ft 343 kts 219°
2026-05-07 06:36 32.91929 -116.53109 11057 ft 343 kts 219°
2026-05-07 06:36 32.90096 -116.54975 10683 ft 342 kts 218°
2026-05-07 06:36 32.88309 -116.56776 10296 ft 341 kts 218°
2026-05-07 06:37 32.86495 -116.58597 9934 ft 340 kts 219°
2026-05-07 06:37 32.84715 -116.60390 9894 ft 327 kts 219°
2026-05-07 06:37 32.83014 -116.62104 9853 ft 316 kts 219°
2026-05-07 06:37 32.81363 -116.63767 9772 ft 306 kts 219°
2026-05-07 06:38 32.79754 -116.65388 9553 ft 302 kts 219°
2026-05-07 06:38 32.78131 -116.67020 9250 ft 301 kts 220°
2026-05-07 06:38 32.76754 -116.68885 8882 ft 302 kts 241°
2026-05-07 06:38 32.75780 -116.71062 8774 ft 294 kts 243°
2026-05-07 06:39 32.74806 -116.73199 8449 ft 295 kts 242°
2026-05-07 06:39 32.73813 -116.75329 8167 ft 294 kts 242°
2026-05-07 06:39 32.72818 -116.77441 7937 ft 292 kts 242°
2026-05-07 06:39 32.71826 -116.79534 7675 ft 290 kts 242°
2026-05-07 06:40 32.70842 -116.81604 7570 ft 283 kts 243°
2026-05-07 06:40 32.70053 -116.83701 7431 ft 275 kts 252°
2026-05-07 06:40 32.69433 -116.85778 7377 ft 266 kts 253°
2026-05-07 06:40 32.68829 -116.87809 7302 ft 257 kts 253°
2026-05-07 06:41 32.68259 -116.89787 7222 ft 249 kts 253°
2026-05-07 06:41 32.67710 -116.91676 7171 ft 235 kts 253°
2026-05-07 06:41 32.67287 -116.93478 7046 ft 219 kts 271°
2026-05-07 06:41 32.67552 -116.95155 6966 ft 198 kts 291°
2026-05-07 06:42 32.67935 -116.96713 6686 ft 197 kts 290°
2026-05-07 06:42 32.68316 -116.98261 6407 ft 193 kts 291°
2026-05-07 06:42 32.68721 -116.99842 5709 ft 211 kts 289°
2026-05-07 06:42 32.69151 -117.01566 5012 ft 224 kts 288°
2026-05-07 06:43 32.69587 -117.03361 4267 ft 227 kts 288°
2026-05-07 06:43 32.70020 -117.05160 3580 ft 223 kts 288°
2026-05-07 06:43 32.70440 -117.06907 2885 ft 217 kts 287°
2026-05-07 06:43 32.70852 -117.08613 2191 ft 214 kts 287°
2026-05-07 06:44 32.71262 -117.10311 1609 ft 211 kts 287°
2026-05-07 06:44 32.71646 -117.11903 1307 ft 191 kts 287°
2026-05-07 06:44 32.71995 -117.13358 1000 ft 175 kts 286°
2026-05-07 06:44 32.72314 -117.14699 701 ft 162 kts 287°
2026-05-07 06:45 32.72619 -117.15936 438 ft 151 kts 287°
2026-05-07 06:45 32.72898 -117.17111 238 ft 146 kts 287°
2026-05-07 06:45 32.73188 -117.18274 43 ft 146 kts 287°
2026-05-07 06:45 32.73447 -117.19318 27 ft 99 kts 287°
2026-05-07 06:46 32.73581 -117.19847 28 ft 42 kts 287°
2026-05-07 06:46 32.73636 -117.20152 27 ft 21 kts 272°
2026-05-07 06:46 32.73588 -117.20209 25 ft 10 kts 190°
2026-05-07 06:46 32.73545 -117.20183 26 ft 7 kts 98°
2026-05-07 06:47 32.73534 -117.20127 24 ft 7 kts 103°
2026-05-07 06:47 32.73520 -117.20059 24 ft 10 kts 104°
2026-05-07 06:47 32.73496 -117.19962 27 ft 14 kts 107°
2026-05-07 06:47 32.73463 -117.19836 29 ft 16 kts 106°
2026-05-07 06:48 32.73423 -117.19778 26 ft 3 kts 200°
2026-05-07 06:48 32.73402 -117.19799 26 ft 6 kts 215°
2026-05-07 06:48 32.73378 -117.19815 25 ft 1 kts 209°
2026-05-07 06:48 32.73377 -117.19816 25 ft 0 kts 209°